Volver al catálogo

STARLINK-37264

ActivoComunicacionesSSO
NORAD 68729·PAYLOAD·🇺🇸 United States

Lanzado Apr 15, 2026 desde Vandenberg Space Force Base

Loading…

Próximos Pases (próximas 24 horas)

TLE

ActualizadoSource: CelesTrak SupGP

Época: Sep 15, 2026, 04:10 UTC

1 68729C 26082B   26258.17409722 -.00024856  00000+0 -77132-3 0  2582
2 68729  97.2851 120.3464 0002073  94.4884 344.0843 15.33461414    14

Sigue STARLINK-37264 en tiempo real con AllMySat

Download on the App Store